Location: Unspecified
(46.3500°N, 0.0000°E)
Time: 16:15:05
(UTC+00:00)

NOAA 15 - Visible Passes

Search period start: 04 April 2026 00:00
Search period end: 14 April 2026 00:00
Orbit: 795 x 808 km, 98.5° (Epoch: 29 March)

Date Brightness Start Highest point End Pass type
(mag) Time Alt. Az. Time Alt. Az. Time Alt. Az.
5 Apr 7.9 20:09:22 10° W 20:10:25 11° W 20:11:29 10° WNW visible
6 Apr 7.4 19:40:10 10° SW 19:43:48 19° W 19:47:27 10° NW visible
7 Apr 6.7 19:12:39 10° SSW 19:17:18 31° W 19:21:58 10° NNW visible
9 Apr 7.7 20:03:11 10° WSW 20:05:06 12° W 20:07:03 10° WNW visible
10 Apr 7.3 19:34:38 10° SW 19:38:31 20° W 19:42:25 10° NW visible
11 Apr 6.5 19:07:16 10° SSW 19:12:02 34° W 19:16:49 10° NNW visible
13 Apr 7.6 19:57:18 10° WSW 19:59:48 13° W 20:02:17 10° WNW visible
